Home > Weather > Port Hedland > Past weeks

Flag for Australia Past Weather in Port Hedland, Western Australia, Australia — Yesterday and Last 2 Weeks

Now
61 °F

Sunny.


Feels Like: 61 °F
Forecast: 67 / 78 °F
Wind: 8 mph from South

Location: Port Hedland Pardoo

Current Time: Aug 30, 2016 at 7:43:11 AM

Latest Report: Aug 30, 2016 at 7:00 AM


Visibility: N/A

Pressure: 29.95 "Hg

Humidity: 88%

Dew Point: 57 °F

Location of Port HedlandLocation

Past Weather in Port Hedland — Graph

°F

Port Hedland Temperature Yesterday

Maximum temperature yesterday: 81 °F (at 1:00 PM)
Minimum temperature yesterday: 63 °F (at 8:30 PM)
Average temperature yesterday: 70 °F

High & Low Weather Summary for the Past Weeks

 TemperatureHumidityPressure
High93 °F (Aug 16, 12:00 PM)100% (Aug 17, 5:00 AM)30.04 "Hg (Aug 17, 5:00 AM)
Low52 °F (Aug 25, 4:00 AM)3% (Aug 22, 5:00 PM)29.77 "Hg (Aug 22, 4:00 PM)
Average71 °F46%29.93 "Hg
* Reported Aug 15 6:00 AM — Aug 30 6:00 AM, Port Hedland, Weather by CustomWeather, © 2016

Note: Actual official high and low records may vary slightly from our data, if they occured in-between our weather recording intervals... More about our weather records

Advertising

Port Hedland Weather History for the Previous 24 Hours

Scroll right to see more
 ConditionsComfort  
Time TempWeatherWind HumidityBarometerVisibility
6:00 AM
Tue, Aug 30
59 °FSunny.6 mph88%29.95 "HgN/A
5:00 AM57 °FClear.2 mph94%29.92 "HgN/A
4:30 AM59 °FClear.6 mph88%29.92 "HgN/A
4:00 AM59 °FClear.7 mph88%29.92 "HgN/A
3:00 AM59 °FClear.7 mph88%29.89 "HgN/A
2:30 AM59 °FClear.1 mph94%29.89 "HgN/A
2:00 AM59 °FClear.2 mph88%29.92 "HgN/A
1:00 AM61 °FClear.6 mph88%29.92 "HgN/A
12:00 AM63 °FClear.8 mph83%29.92 "HgN/A
11:30 PM
Mon, Aug 29
63 °FClear.3 mph83%29.92 "HgN/A
11:00 PM63 °FClear.3 mph83%29.92 "HgN/A
10:00 PM63 °FClear.8 mph83%29.92 "HgN/A
9:00 PM63 °FClear.7 mph83%29.92 "HgN/A
8:30 PM63 °FClear.3 mph88%29.92 "HgN/A
8:00 PM64 °FClear.8 mph78%29.89 "HgN/A
7:30 PM64 °FClear.7 mph78%29.89 "HgN/A
7:00 PM66 °FClear.8 mph68%29.86 "HgN/A
6:00 PM70 °FClear.12 mph57%29.86 "HgN/A
5:30 PM72 °FClear.15 mph47%29.86 "HgN/A
5:00 PM73 °FClear.18 mph44%29.83 "HgN/A
4:30 PM75 °FSunny.20 mph39%29.83 "HgN/A
4:00 PM75 °FSunny.21 mph39%29.83 "HgN/A
3:30 PM77 °FSunny.18 mph36%29.83 "HgN/A
3:00 PM77 °FSunny.18 mph36%29.83 "HgN/A
2:30 PM79 °FSunny.18 mph37%29.83 "HgN/A
2:00 PM79 °FSunny.17 mph32%29.83 "HgN/A
1:30 PM81 °FSunny.10 mph28%29.83 "HgN/A
1:00 PM81 °FSunny.5 mph26%29.86 "HgN/A
12:30 PM77 °FSunny.3 mph32%29.86 "HgN/A
12:00 PM79 °FSunny.10 mph30%29.86 "HgN/A
11:00 AM77 °FSunny.7 mph34%29.89 "HgN/A
10:00 AM72 °FSunny.8 mph50%29.92 "HgN/A
9:30 AM72 °FSunny.10 mph50%29.89 "HgN/A
9:00 AM70 °FSunny.13 mph50%29.92 "HgN/A
8:30 AM70 °FSunny.13 mph53%29.92 "HgN/A
8:00 AM68 °FSunny.14 mph56%29.89 "HgN/A
7:00 AM64 °FSunny.9 mph78%29.86 "HgN/A
Weather by CustomWeather, © 2016

See weather overviewHow to use our weather pages